Back to catalog

NIMBUS 2 DEB

AliveLEO
NORAD 32475·DEBRIS·🇺🇸 United States

Launched May 15, 1966 from Vandenberg Space Force Base

Loading…

Next Passes (next 24 hours)

TLE

StaleSource: Space-Track

Epoch: Aug 22, 2026, 13:52 UTC

1 32475U 66040AS  26234.57801260  .00002173  00000-0  29769-2 0  9991
2 32475 100.5366 268.5687 0054562 292.8994 222.0406 13.59467141937445

Track NIMBUS 2 DEB in real time with AllMySat

Download on the App Store